Location: Madrid
(40.4167°N, 3.7036°W)
Time: 19:24:26
(UTC+00:00)

ISS - Pass Details

Date: 17 October 2025
Orbit: 414 x 421 km, 51.6° (Epoch: 07 November)

Event Time Altitude Azimuth Distance (km) Brightness Sun altitude
Exits shadow 05:50:29 - 248° (WSW) 1,655 -1.3 -7.9°
Reaches altitude 10° 05:50:53 10° 249° (WSW) 1,494 -1.5 -7.8°
Maximum altitude 05:54:10 52° 327° (NNW) 529 -3.5 -7.2°
Drops below altitude 10° 05:57:29 10° 45° (NE) 1,507 -0.3 -6.6°
Sets 05:59:38 0° 51° (NE) 2,376 0.8 -6.2°
